Weather History for KSBP - April, 2014

Change the Weather History Date:

Friday, April 4, 2014

  Actual Average Record
Temperature  
Mean Temperature 53 °F -  
Max Temperature 62 °F 68 °F 94 °F (1961)
Min Temperature 44 °F 44 °F 30 °F (1999)
Degree Days  
Heating Degree Days 12    
Growing Degree Days 3 (Base 50)    
Moisture  
Dew Point 44 °F    
Average Humidity 75    
Maximum Humidity 90    
Minimum Humidity 55    
Precipitation  
Precipitation 0.00 in - - ()
Sea Level Pressure  
Sea Level Pressure 30.04 in    
Wind  
Wind Speed 5 mph (NW)    
Max Wind Speed 21 mph    
Max Gust Speed 29 mph    
Visibility 10 miles    
Events Rain    
Averages and records for this station are not official NWS values.
T = Trace of Precipitation, MM = Missing Value Source: NWS Daily Summary

Daily Weather History Graph

Daily Weather History Graph

Search for Another Location

Airport or City:

Trip Planner

Search our weather history database for the weather conditions in past years. The results will help you decide how hot, cold, wet, or windy it might be!

Date:

Astronomy

Apr. 04, 2014 Rise Set
Actual Time 6:44 AM PDT 7:26 PM PDT
Civil Twilight 6:19 AM PDT 7:52 PM PDT
Nautical Twilight 5:49 AM PDT 8:22 PM PDT
Astronomical Twilight 5:18 AM PDT 8:53 PM PDT
Moon 10:13 AM PDT (4/4) No Moon Set
Length of Visible Light 13h 32m
Length of Day
12h 41m
Waxing Crescent, 26% of the Moon is Illuminated
Apr 4
Waxing Crescent
Apr 7
First Quarter
Apr 15
Full
Apr 22
Last Quarter
Apr 28
New

Hourly Weather History & Observations

Time (PDT) Temp. Windchill Dew Point Humidity Pressure Visibility Wind Dir Wind Speed Gust Speed Precip Events Conditions
12:56 AM 48.9 °F - 45.0 °F 86% 30.08 in 10.0 mi Calm Calm - N/A   Partly Cloudy
1:10 AM 50.0 °F - 44.6 °F 82% 30.08 in 10.0 mi Calm Calm - N/A   Mostly Cloudy
1:56 AM 48.9 °F - 44.1 °F 83% 30.06 in 10.0 mi SSE 3.5 mph - N/A   Mostly Cloudy
2:20 AM 48.2 °F - 44.6 °F 87% 30.06 in 10.0 mi Calm Calm - N/A   Scattered Clouds
2:56 AM 46.9 °F - 44.1 °F 90% 30.06 in 10.0 mi Calm Calm - N/A   Partly Cloudy
3:56 AM 46.0 °F 44.8 °F 42.1 °F 86% 30.04 in 10.0 mi ESE 3.5 mph - N/A   Mostly Cloudy
4:14 AM 46.4 °F 45.2 °F 42.8 °F 87% 30.04 in 10.0 mi ESE 3.5 mph - N/A   Scattered Clouds
4:56 AM 45.0 °F - 41.0 °F 86% 30.03 in 10.0 mi Calm Calm - N/A   Clear
5:56 AM 44.1 °F 42.5 °F 39.9 °F 85% 30.03 in 10.0 mi ESE 3.5 mph - N/A   Clear
6:56 AM 44.1 °F - 39.9 °F 85% 30.03 in 10.0 mi Calm Calm - N/A   Clear
7:56 AM 46.0 °F - 42.1 °F 86% 30.04 in 10.0 mi Calm Calm - N/A   Scattered Clouds
8:51 AM 50.0 °F - 44.6 °F 82% 30.04 in 10.0 mi Calm Calm - N/A   Mostly Cloudy
8:56 AM 50.0 °F - 45.0 °F 83% 30.04 in 10.0 mi Calm Calm - N/A   Mostly Cloudy
9:56 AM 55.0 °F - 45.0 °F 69% 30.05 in 10.0 mi Calm Calm - N/A   Overcast
10:56 AM 57.0 °F - 44.1 °F 62% 30.05 in 10.0 mi Calm Calm - N/A   Overcast
11:56 AM 55.9 °F - 48.9 °F 77% 30.05 in 9.0 mi SW 6.9 mph - 0.00 in Rain Light Rain
1:56 PM 59.0 °F - 48.9 °F 69% 30.03 in 10.0 mi NW 9.2 mph - 0.00 in   Mostly Cloudy
2:56 PM 62.1 °F - 46.9 °F 58% 30.02 in 10.0 mi NW 20.7 mph 27.6 mph N/A   Mostly Cloudy
3:03 PM 60.8 °F - 46.4 °F 59% 30.02 in 10.0 mi NW 19.6 mph - N/A   Clear
3:56 PM 61.0 °F - 45.0 °F 56% 30.01 in 10.0 mi NW 18.4 mph 28.8 mph N/A   Mostly Cloudy
4:56 PM 60.1 °F - 44.1 °F 55% 30.01 in 10.0 mi WNW 19.6 mph 27.6 mph N/A   Mostly Cloudy
5:56 PM 59.0 °F - 44.1 °F 58% 30.00 in 10.0 mi WNW 18.4 mph 28.8 mph N/A   Mostly Cloudy
6:56 PM 55.0 °F - 45.0 °F 69% 30.01 in 10.0 mi NW 13.8 mph 23.0 mph N/A   Mostly Cloudy
7:56 PM 54.0 °F - 45.0 °F 72% 30.01 in 10.0 mi NW 18.4 mph 24.2 mph N/A   Clear
8:56 PM 54.0 °F - 46.0 °F 75% 30.03 in 10.0 mi NW 12.7 mph 20.7 mph N/A   Partly Cloudy
9:56 PM 54.0 °F - 44.1 °F 69% 30.04 in 10.0 mi NW 12.7 mph - N/A   Overcast
10:56 PM 54.0 °F - 44.1 °F 69% 30.04 in 10.0 mi NW 12.7 mph - N/A   Overcast
11:56 PM 53.1 °F - 45.0 °F 74% 30.04 in 10.0 mi NNW 8.1 mph - N/A   Mostly Cloudy